Location: Borgo
(42.3939°N, 9.2791°E)
Time: 01:54:44
(UTC+00:00)

CSL-04 DEB - Pass Details

Date: 24 January 2021
Orbit: 544 x 628 km, 98.8° (Epoch: 08 March)

Event Time Altitude Azimuth Distance (km) Brightness Sun altitude
Rises 17:03:28 0° 17° (NNE) 2,840 7.6 -7.1°
Reaches altitude 10° 17:05:42 10° 21° (NNE) 1,920 6.7 -7.5°
Maximum altitude 17:09:49 62° 102° (ESE) 653 4.4 -8.2°
Drops below altitude 10° 17:13:47 10° 184° (S) 1,855 7.3 -8.9°
Sets 17:15:54 0° 187° (S) 2,735 8.2 -9.3°
